Theta_e
352 352 352 352 352 352 352 354 354 354 354 353 354 353 353 351 350 350 351 350 349 347 345 344 344 344 345 345 347 348 348 348 347 347 347 347 347 347 348 349 350 351 352 352 352 351 350 351 351 350 350 351 352 352 352 351 350 350 350 351 352 353 352 352 352 352 352 352 353 352 351 349 348 348 349 348 348 347 342 342 346 345 345 342 343
352 352 353 352 352 352 351 353 352 353 352 353 354 352 352 351 350 350 349 348 346 344 343 344 344 345 345 345 345 344 345 345 346 346 346 347 348 349 349 350 351 352 352 352 352 351 350 352 353 352 352 352 352 353 353 352 351 351 352 352 351 352 352 352 352 352 352 352 352 352 351 350 349 349 348 347 346 342 335 341 346 345 343 341 343
352 353 353 352 353 351 351 352 352 351 351 351 351 350 350 349 348 346 346 345 344 343 344 344 344 344 344 345 345 344 345 346 347 347 347 348 349 348 349 349 350 352 352 352 353 352 352 353 353 352 352 351 351 353 353 351 353 352 351 351 351 352 352 352 352 352 351 351 351 351 351 351 351 349 349 347 344 336 331 340 344 343 342 340 341
352 353 352 352 352 351 352 352 351 350 350 350 349 349 348 347 345 344 344 344 345 345 346 346 345 346 346 347 348 349 349 349 350 349 349 349 348 347 349 350 350 352 353 353 353 352 352 352 352 351 352 351 349 351 351 351 353 351 350 351 352 352 352 351 351 351 351 351 351 351 351 351 351 350 349 346 344 336 330 337 340 341 343 343 344
352 352 352 352 350 350 351 350 349 348 349 349 348 348 346 345 344 344 345 346 346 346 347 347 348 348 348 349 350 350 351 352 351 350 348 348 349 350 351 350 351 352 352 353 352 351 350 350 350 350 351 351 349 349 350 351 352 352 351 351 352 351 350 350 350 350 351 351 351 351 351 350 350 350 348 345 344 341 335 335 339 342 344 345 346
352 352 352 352 351 351 349 348 347 347 348 349 348 346 344 344 344 345 346 346 347 347 348 348 349 349 349 349 350 350 350 351 351 350 347 349 350 349 351 351 351 352 352 351 351 351 349 349 350 349 349 350 350 349 351 352 352 352 351 350 351 350 349 350 350 350 350 350 350 351 351 350 350 350 347 345 345 342 337 335 340 343 345 346 347
352 352 352 352 353 353 350 349 348 346 347 347 345 344 344 345 344 345 345 347 348 349 350 350 351 351 350 350 350 350 349 350 351 351 349 350 350 349 350 350 350 350 349 349 350 351 349 350 350 349 349 350 350 350 351 351 351 351 350 350 350 350 350 350 348 347 348 349 350 352 351 351 350 349 347 346 345 341 337 336 340 343 345 347 348
352 352 352 352 352 352 351 350 349 348 347 345 344 344 345 346 344 345 347 348 349 349 351 351 352 351 350 349 350 350 349 349 350 351 351 351 350 350 350 349 349 349 348 350 351 351 351 350 350 350 349 349 350 350 351 350 350 350 350 350 350 349 350 349 346 345 346 347 349 350 350 350 349 348 347 347 344 339 337 337 340 343 345 348 348
352 352 351 352 352 351 350 350 349 347 344 343 344 345 345 346 345 347 349 350 350 350 351 351 351 351 350 349 350 349 348 350 350 350 349 350 350 350 350 350 350 349 350 351 351 351 351 350 350 350 349 349 349 350 350 349 349 349 349 350 349 349 349 347 345 345 345 345 347 348 349 349 349 348 347 347 343 340 340 342 342 344 346 347 347
353 352 352 353 352 350 350 350 348 343 339 339 343 345 346 346 347 349 349 350 351 351 352 352 352 351 351 350 350 349 349 350 350 350 349 349 348 349 352 350 348 350 352 351 350 351 350 350 349 348 349 349 349 350 350 349 349 349 349 349 349 349 348 345 344 344 345 345 345 346 346 348 348 347 345 343 340 338 340 342 343 345 345 346 345
353 352 352 353 351 350 350 350 348 339 334 339 344 347 346 346 349 351 350 350 350 350 351 352 353 352 351 351 351 350 350 351 351 352 350 348 348 349 353 351 350 351 351 349 349 350 349 350 349 347 347 347 349 350 349 350 348 348 349 348 347 347 346 344 345 345 345 345 346 345 345 347 348 346 343 341 340 338 338 340 343 345 345 345 345
353 352 351 352 350 349 349 349 347 339 335 340 346 347 344 347 351 352 350 350 350 350 351 352 354 352 352 352 352 352 350 351 352 352 352 350 350 351 353 352 352 351 350 349 349 349 348 350 350 348 347 347 349 348 348 348 347 347 347 346 346 345 344 343 345 345 344 343 344 346 347 347 347 346 345 344 342 339 340 342 343 344 344 344 344
352 352 351 351 349 349 349 347 343 338 337 342 345 344 344 349 352 352 351 350 349 349 350 351 353 352 352 353 353 352 349 349 351 352 352 352 352 352 351 351 352 351 350 349 349 349 349 348 349 349 348 348 349 347 347 347 346 345 344 345 345 344 343 342 343 343 343 342 343 346 347 348 346 346 345 342 339 339 342 343 344 344 344 343 342
352 351 351 351 349 350 349 345 341 339 340 343 343 343 347 352 353 353 351 351 349 348 349 351 353 353 353 354 353 353 351 350 351 352 352 352 352 352 350 349 351 351 350 350 350 350 350 348 348 349 349 349 348 347 346 346 346 344 344 346 345 344 343 342 342 343 343 342 345 346 347 347 345 344 342 339 339 341 343 344 344 344 344 343 342
352 352 351 351 350 350 349 345 343 344 345 344 343 346 351 353 352 352 351 350 350 349 350 352 352 354 353 353 351 351 352 352 352 351 352 352 352 352 351 350 350 351 351 350 350 349 350 349 348 349 349 349 348 346 346 345 344 343 344 345 344 343 342 343 344 344 343 343 345 346 347 345 342 341 340 340 342 343 344 344 344 344 343 343 343
353 352 351 352 352 352 351 349 348 350 348 345 345 349 351 351 351 352 351 350 350 350 351 352 352 353 352 350 350 350 352 352 352 351 352 352 351 350 350 350 349 350 350 350 350 350 350 350 348 348 348 349 348 347 346 345 344 344 344 344 344 343 342 344 344 344 343 343 345 346 347 343 340 341 341 341 342 343 344 345 345 345 344 344 343
352 351 352 353 353 353 353 352 352 352 348 345 346 350 350 350 351 352 351 350 350 350 351 351 352 352 351 350 350 351 352 351 351 352 352 351 349 349 350 348 348 350 349 350 350 350 350 351 350 349 349 349 350 349 348 348 346 345 345 345 345 344 342 343 345 344 342 341 343 346 347 343 340 340 341 341 342 344 345 346 346 346 345 344 342
352 351 352 352 353 353 353 353 353 352 347 345 346 348 348 349 351 351 351 351 350 351 351 351 352 352 352 352 351 352 352 350 350 351 351 350 348 348 349 349 348 349 349 350 349 349 351 351 351 351 350 350 350 350 350 350 349 347 346 345 344 344 343 344 345 344 341 341 344 346 346 342 340 340 340 341 342 344 345 347 347 346 346 345 344
353 353 352 352 353 353 353 352 352 351 348 346 346 347 348 349 350 351 351 350 349 351 351 351 352 353 352 352 351 352 352 350 350 350 350 350 348 348 349 350 349 349 347 349 350 350 350 350 350 350 349 350 351 350 350 350 350 349 346 344 343 343 343 345 345 344 344 345 346 346 344 341 342 342 341 342 343 345 346 346 347 346 345 346 344
353 353 353 352 352 352 352 352 351 349 347 347 347 348 349 349 351 351 350 349 349 350 350 350 351 352 351 351 351 351 352 350 349 349 349 350 349 350 350 349 349 347 346 348 349 350 349 349 350 350 348 349 350 350 350 350 350 349 344 342 341 341 343 345 345 346 346 346 347 346 343 343 344 344 344 344 346 346 346 345 347 347 346 346 344
353 353 354 353 352 352 352 351 349 347 346 347 348 350 350 350 351 351 350 349 349 351 351 351 350 351 351 350 350 350 351 349 349 349 349 350 350 350 349 349 348 347 347 347 348 350 349 349 350 350 348 348 349 349 350 349 348 345 342 341 340 340 342 344 345 346 346 346 347 345 343 345 345 346 346 345 346 347 347 346 346 346 345 346 345
352 353 353 353 352 352 352 349 347 346 347 348 349 350 351 351 351 351 350 350 350 351 352 351 351 350 350 350 349 350 350 348 348 350 350 350 350 349 350 349 348 348 347 348 348 350 351 350 349 348 348 347 348 348 348 347 344 341 340 340 340 341 341 341 344 346 346 347 347 344 344 346 346 347 346 346 347 347 347 346 346 346 345 346 346
351 352 352 352 352 351 350 348 347 347 348 349 349 350 351 350 351 351 351 351 351 351 351 351 351 350 349 349 349 349 348 348 349 349 349 349 349 349 350 349 348 348 347 348 348 350 351 349 347 347 348 348 348 348 347 346 343 341 340 340 340 340 340 340 343 345 345 346 346 344 345 347 347 348 347 348 348 347 347 346 346 346 346 346 345
351 351 352 352 351 351 349 348 348 349 349 349 350 350 351 350 351 351 351 350 350 351 351 351 351 350 349 348 350 350 349 350 349 348 349 349 349 349 349 348 349 348 346 348 348 348 349 348 346 347 348 349 349 349 348 347 345 343 342 341 340 339 340 342 344 345 343 343 344 343 345 346 346 347 347 348 347 347 346 345 346 346 346 345 344
351 351 352 352 350 350 349 349 349 349 349 349 350 351 351 351 351 350 350 350 350 351 351 351 351 349 349 349 350 350 349 350 349 348 349 348 348 348 348 348 348 346 345 346 347 348 349 348 349 349 350 350 349 349 348 347 347 345 342 339 339 339 341 342 343 344 343 343 343 341 343 344 345 345 346 346 346 346 345 345 345 345 345 345 344
351 351 351 351 350 349 350 350 350 350 350 349 351 351 350 351 351 350 350 350 351 350 351 351 350 349 349 350 350 350 350 349 349 348 348 348 349 348 348 346 346 345 344 345 345 347 349 349 350 351 352 352 351 350 348 348 348 347 345 341 339 340 342 343 343 342 343 343 342 341 343 343 343 344 344 345 345 344 344 345 345 346 346 346 345
350 351 350 351 351 350 350 350 350 350 350 349 351 351 350 351 351 350 351 351 351 351 351 350 350 350 350 350 350 350 350 350 349 348 348 349 348 346 345 344 344 344 344 347 347 348 350 350 351 351 352 352 352 351 350 348 347 348 348 346 344 342 342 344 343 342 343 343 342 341 342 343 343 344 344 344 344 343 344 344 345 346 346 346 345
350 350 350 351 351 351 350 350 350 350 349 350 351 352 351 351 350 350 351 351 352 351 350 350 349 349 350 350 350 350 351 350 349 349 348 348 345 343 343 345 347 346 347 350 350 351 351 351 351 352 352 352 352 352 351 350 348 348 348 348 348 346 345 344 342 342 344 344 343 341 340 342 343 344 344 344 344 343 343 344 345 345 345 345 345
350 350 350 351 351 351 351 351 350 349 349 351 351 352 351 351 350 351 351 350 351 350 348 348 349 349 349 348 349 349 350 350 349 349 347 345 342 343 346 347 348 349 350 351 351 352 352 351 351 352 352 351 352 351 350 351 350 348 348 349 349 348 347 346 342 342 344 345 345 342 340 341 342 343 343 343 343 343 343 343 344 344 344 344 344
349 350 351 351 351 351 351 351 350 349 350 351 351 352 351 351 351 351 351 350 349 348 347 347 348 348 348 347 348 348 349 350 348 346 345 343 342 345 348 349 349 349 351 351 350 351 352 352 352 352 351 350 351 350 349 350 350 348 347 348 350 350 349 347 344 343 344 345 346 344 342 341 341 342 342 342 341 342 344 344 344 344 343 343 342
349 350 351 351 352 351 351 351 350 349 350 351 352 351 351 351 351 350 350 349 348 348 348 348 348 348 347 347 347 345 345 347 346 344 344 344 345 347 349 349 350 348 350 351 350 349 351 351 351 352 349 349 349 347 348 349 349 348 346 347 348 349 349 348 346 345 345 345 345 344 343 341 342 343 343 343 342 341 342 342 343 343 343 342 342
350 350 351 351 352 351 351 351 351 349 350 352 352 351 351 350 350 349 349 348 347 348 348 348 348 348 347 345 344 343 344 345 345 344 344 345 347 348 348 348 349 348 348 350 349 349 350 352 351 350 348 347 347 346 346 348 349 349 347 347 347 348 349 348 348 347 345 345 343 343 343 342 343 345 345 344 343 343 342 342 344 344 344 344 344
350 350 351 351 351 351 351 351 351 350 350 351 352 351 351 351 350 349 349 348 347 348 348 348 348 348 346 345 344 344 347 346 346 345 345 346 345 345 347 348 348 348 348 348 349 350 352 353 352 351 350 349 350 348 346 349 349 348 347 348 347 347 348 348 350 349 347 345 344 344 344 343 343 344 345 344 343 344 346 345 346 346 346 346 346
350 350 350 351 351 351 351 351 351 351 351 351 352 351 351 351 350 350 348 347 348 349 349 347 348 349 348 348 347 347 349 348 348 347 346 348 345 344 347 348 348 348 349 349 351 353 353 353 352 352 351 351 352 349 348 350 349 347 348 347 347 347 347 349 350 349 349 347 345 344 345 345 344 343 344 343 342 342 344 345 346 346 347 347 346
351 351 351 351 351 352 352 351 351 351 351 351 351 351 351 351 351 350 348 347 349 349 350 349 348 349 350 350 350 349 349 348 348 348 347 348 349 348 348 349 349 349 350 350 351 353 353 353 352 352 353 351 352 349 345 348 347 347 347 346 347 346 346 348 349 349 349 348 347 345 344 344 344 343 343 344 345 342 341 342 343 344 345 346 346
351 352 352 351 351 351 352 352 351 351 352 351 351 350 350 350 351 350 348 347 349 350 350 350 349 349 350 351 351 351 350 349 348 348 347 348 350 351 350 349 349 350 351 350 352 353 353 352 350 351 353 351 351 349 344 343 345 347 346 346 347 346 346 348 348 349 349 348 348 347 345 343 343 343 343 344 345 344 341 341 341 341 342 343 344
352 352 352 351 352 352 352 352 352 351 352 351 351 351 350 350 350 350 348 347 349 351 350 349 349 349 350 352 352 351 350 349 348 348 347 348 349 351 351 350 349 350 350 350 352 352 352 353 350 349 350 350 351 350 346 343 344 346 347 347 347 346 347 347 347 348 347 346 347 348 347 345 344 343 344 346 346 345 343 342 342 341 340 340 340
352 352 351 351 352 352 352 352 352 352 352 352 351 351 350 349 349 350 348 347 349 352 351 349 350 349 349 350 351 352 351 349 348 348 348 348 348 350 351 350 350 351 351 351 351 350 350 352 352 350 348 350 352 352 349 345 344 347 347 347 347 346 346 346 345 346 346 347 348 347 347 346 345 344 344 345 346 345 344 344 342 341 341 340 339
352 352 351 351 351 353 353 352 352 352 352 351 350 351 350 347 348 349 348 349 350 350 350 349 350 350 349 348 349 351 351 349 349 348 349 349 349 350 350 350 351 351 351 352 352 351 350 352 353 352 349 349 351 350 347 345 344 346 347 348 346 345 346 345 345 345 346 348 347 347 348 347 346 345 344 344 344 344 344 344 343 341 341 340 340
352 352 352 351 352 353 353 353 352 352 352 351 349 350 350 349 349 350 350 351 351 350 350 349 350 350 349 348 348 349 350 349 349 349 349 350 350 351 351 351 351 352 352 353 353 351 352 353 352 352 352 351 350 348 346 345 346 345 346 347 347 345 346 345 345 345 345 346 346 346 348 349 347 345 345 344 344 344 343 343 343 342 342 341 341
353 353 353 352 351 352 353 353 353 352 351 350 349 349 350 350 350 351 352 352 352 351 350 350 350 350 348 348 348 348 349 349 350 349 349 349 349 350 351 351 351 352 352 352 352 350 350 351 351 351 353 354 353 350 346 345 347 346 346 347 347 347 346 345 345 346 346 346 347 345 345 348 349 347 344 343 343 343 343 343 343 343 343 343 343
354 354 353 353 352 352 353 353 353 352 350 348 347 346 348 349 350 351 352 353 352 351 351 350 349 349 347 348 349 348 348 348 349 350 349 349 349 350 350 350 351 352 351 351 350 350 350 351 352 354 354 354 355 350 345 345 347 347 347 347 347 346 346 346 346 347 346 347 347 347 345 347 349 348 344 342 342 342 342 342 342 343 343 344 344
354 354 354 354 353 353 353 352 352 352 349 346 344 344 345 345 348 350 352 353 351 350 351 350 349 349 347 348 349 348 347 348 348 349 350 350 349 350 350 350 350 351 351 352 351 349 351 351 352 355 355 355 354 350 346 346 348 348 347 347 347 346 346 348 348 346 345 346 346 346 347 347 348 346 342 341 342 342 342 342 342 342 343 343 343
354 354 354 355 354 354 353 351 349 349 347 345 345 344 343 343 345 348 350 352 350 349 349 349 349 349 348 348 349 350 349 349 348 349 350 350 350 350 351 351 351 351 352 353 352 350 352 352 352 354 356 355 353 353 351 347 346 347 348 347 347 346 345 347 348 346 344 344 345 345 345 346 347 344 341 343 344 341 341 341 342 342 342 343 343
353 354 355 355 355 354 353 351 348 348 346 345 344 344 343 343 346 349 350 351 351 350 351 351 351 349 350 349 348 350 351 350 349 349 349 349 350 351 351 351 351 351 352 353 353 352 352 353 352 353 356 355 354 354 353 351 347 345 347 348 348 347 346 346 346 347 345 343 343 344 344 344 346 343 339 342 342 340 341 341 341 342 343 343 343
353 354 354 354 355 354 353 352 350 348 347 346 345 344 344 344 347 351 352 352 353 353 352 353 352 351 352 351 349 350 350 350 350 350 350 349 350 351 350 351 351 351 352 353 353 352 352 353 352 354 356 356 355 355 354 354 350 346 346 347 348 348 349 349 348 349 348 344 343 343 343 344 344 342 340 341 341 340 340 340 341 341 342 342 342
352 353 354 354 355 355 353 353 352 350 349 348 346 345 345 345 347 351 353 353 354 354 350 350 349 348 351 350 349 350 350 349 350 350 350 350 351 351 351 350 351 351 352 353 354 354 354 354 352 353 355 355 355 356 354 354 353 351 350 350 350 349 349 349 348 348 349 348 346 343 343 345 344 342 342 342 342 341 340 340 340 341 341 341 341
352 353 353 354 355 355 353 352 352 351 350 348 346 345 345 346 348 351 352 352 353 353 348 346 347 347 349 349 349 350 349 349 349 349 350 350 350 352 352 351 351 352 352 353 355 356 355 354 352 351 351 352 355 357 355 354 353 353 353 352 351 350 349 348 347 347 349 348 346 344 343 344 345 344 343 343 343 341 340 340 340 340 341 341 341
351 352 353 354 355 354 353 352 352 352 350 349 347 345 344 346 349 350 351 351 351 351 348 346 346 346 347 348 349 350 350 349 350 351 350 349 350 351 352 352 351 351 353 354 355 355 354 354 353 352 351 352 354 355 355 356 354 352 353 353 352 350 349 348 346 347 348 347 345 344 345 345 345 345 345 345 345 342 341 341 341 341 341 341 341
350 351 352 353 354 354 354 353 353 352 351 350 348 346 345 347 349 350 350 351 350 349 347 347 346 345 346 347 348 349 350 351 352 352 351 349 349 351 353 353 352 352 352 355 355 354 355 354 354 353 352 352 353 354 356 357 354 352 353 355 354 352 350 349 347 347 347 348 347 344 344 345 344 346 346 345 345 344 342 343 344 343 342 342 341
351 351 351 352 353 354 354 353 353 352 352 351 349 347 346 347 349 350 350 350 349 348 347 347 346 345 346 347 347 348 349 350 352 353 352 349 348 350 351 353 353 352 352 354 355 356 357 356 355 354 353 353 353 354 356 356 355 354 354 356 355 352 351 350 348 350 349 348 348 345 345 346 345 346 346 344 345 345 344 345 346 345 344 345 344
Wind_Speed
14 13 14 16 16 16 17 16 16 17 18 20 20 20 20 20 19 18 17 16 15 14 13 13 12 11 10 10 9 9 9 9 9 9 9 8 8 7 7 7 8 8 8 9 10 10 10 10 10 10 11 11 11 12 13 15 15 15 14 13 13 14 14 14 13 12 12 13 15 19 20 17 18 18 19 20 20 19 18 17 16 16 16 17 17
17 14 13 16 17 17 17 16 16 17 18 19 19 19 19 18 18 17 16 15 15 14 13 12 11 11 10 10 10 9 9 9 9 9 9 8 8 8 7 7 8 8 8 9 9 9 10 10 10 10 11 11 11 11 12 14 14 14 14 13 13 14 14 14 13 13 13 14 15 17 19 19 19 19 19 19 20 19 18 17 16 16 17 17 17
19 16 14 16 18 18 17 17 16 17 18 19 19 19 19 18 17 17 16 15 14 13 13 12 12 12 12 11 11 11 10 10 10 9 9 8 8 8 7 7 7 7 7 8 9 9 10 10 9 10 12 12 13 12 11 12 13 14 14 14 14 14 14 14 13 14 14 15 16 16 18 19 19 20 20 20 20 19 18 18 17 18 19 18 17
20 18 15 15 17 18 17 16 17 18 18 18 19 18 18 17 17 16 15 14 13 13 13 13 13 12 12 12 11 11 10 10 10 10 9 8 7 8 8 7 7 7 7 8 9 10 11 10 10 11 13 13 14 13 10 11 13 14 15 14 15 14 14 13 14 15 14 15 16 16 17 18 19 19 21 21 20 19 19 19 19 19 18 18 17
20 19 17 17 16 17 16 15 16 17 18 18 18 17 17 17 16 15 14 14 13 13 13 13 13 13 12 12 11 10 10 9 10 10 8 8 7 7 8 7 7 8 9 9 9 9 10 10 11 12 13 13 14 14 11 10 14 15 15 15 15 14 14 14 15 15 16 16 16 15 16 18 19 19 20 21 20 19 18 17 18 18 17 17 16
19 20 19 19 18 17 15 15 15 16 17 17 17 17 16 16 15 14 14 13 13 13 13 13 13 13 12 12 11 10 9 9 11 10 8 8 8 7 8 8 9 10 10 9 8 8 10 11 12 11 11 13 14 13 11 10 14 15 15 15 15 15 15 15 16 16 17 17 17 16 16 17 18 18 19 20 19 18 16 17 17 17 16 16 16
18 19 18 19 20 18 17 16 15 16 17 16 16 16 15 14 14 14 14 13 13 13 13 13 13 13 12 12 11 9 8 10 13 11 8 10 9 8 8 10 11 11 10 9 7 8 10 11 12 10 10 13 14 12 10 11 14 15 15 15 15 16 16 16 17 17 17 18 17 15 15 16 17 17 17 17 17 17 16 16 17 16 16 15 15
18 18 18 18 19 19 17 16 15 15 16 16 16 16 15 13 13 13 13 13 12 12 13 13 13 12 11 11 10 8 8 12 15 12 10 11 10 9 9 11 12 12 12 9 8 10 10 10 11 11 11 12 12 11 10 11 14 15 15 16 16 16 16 16 17 17 17 17 15 14 15 16 16 16 15 15 16 16 16 16 16 15 15 14 14
18 18 18 17 18 18 17 16 15 15 16 16 15 14 13 12 12 13 13 12 12 12 12 13 13 12 11 11 11 9 9 12 15 13 11 12 12 10 10 11 13 14 12 9 9 11 11 11 11 12 13 12 11 10 10 11 13 14 15 16 16 15 15 16 16 15 15 15 14 14 14 15 15 15 14 14 15 15 16 15 15 14 14 13 13
17 17 17 16 17 17 16 16 14 14 15 15 14 13 12 12 12 12 12 12 11 11 12 13 13 11 11 12 12 10 9 13 15 13 11 12 14 12 10 11 14 14 10 9 12 13 13 13 10 11 14 13 11 9 10 11 12 14 15 16 16 15 14 15 15 15 15 14 14 14 14 14 14 14 14 14 15 15 16 15 14 14 14 14 14
16 17 16 15 17 16 15 15 14 14 15 14 13 12 11 11 11 11 11 11 11 10 11 12 13 12 11 12 12 10 10 13 15 13 11 12 14 12 10 12 14 12 10 12 14 14 14 14 12 12 13 12 10 9 10 11 12 14 15 16 16 14 14 15 15 14 14 13 13 13 14 14 14 15 15 15 15 15 15 14 14 14 14 14 14
16 17 16 16 16 15 15 14 14 14 14 13 12 11 10 11 11 10 11 11 10 10 10 12 13 12 11 12 12 10 9 13 15 14 13 12 12 11 10 13 13 12 11 13 15 16 15 14 14 14 14 12 10 10 11 12 13 15 15 16 15 14 14 15 15 14 13 12 13 13 12 13 14 15 14 15 15 14 14 14 14 14 14 14 13
17 16 16 16 15 14 14 13 14 14 14 11 10 10 9 10 10 9 10 10 10 9 9 10 12 13 12 12 13 11 9 12 13 12 13 12 11 11 12 13 14 14 13 14 16 17 15 14 15 15 14 13 12 12 12 14 15 15 16 15 14 14 14 14 15 14 13 13 13 13 13 13 14 15 14 14 14 14 13 13 13 13 13 13 13
17 17 16 16 15 14 13 13 14 13 12 10 10 9 9 9 9 9 9 9 10 10 9 9 11 12 12 12 13 12 11 11 11 11 12 13 12 11 13 14 15 15 14 14 16 16 15 14 15 15 14 14 13 13 13 15 16 16 16 14 13 13 14 14 15 14 13 14 13 13 14 14 14 14 14 14 13 13 12 12 12 12 12 12 12
16 17 16 16 15 14 13 13 13 12 11 10 10 9 9 9 9 9 8 9 9 10 9 9 10 11 11 12 13 12 12 12 11 11 12 12 12 12 13 14 15 15 14 14 15 16 15 14 15 14 14 14 14 14 15 15 15 15 15 13 12 12 13 14 14 13 13 14 13 13 13 13 13 13 13 13 12 12 11 11 11 11 11 12 12
15 16 16 15 15 15 14 13 12 11 10 9 10 9 9 9 8 8 8 9 9 9 9 9 10 11 11 12 12 12 12 12 12 12 12 12 13 14 14 14 14 14 14 14 15 16 15 15 15 14 15 14 14 16 17 16 15 14 13 12 12 12 13 13 13 13 13 13 13 13 12 12 12 12 12 11 11 11 10 10 10 10 11 11 11
15 16 15 14 13 13 13 12 13 11 10 9 9 9 8 8 8 8 8 8 9 8 8 9 10 10 10 11 12 12 12 12 13 13 12 12 13 14 14 13 14 14 13 13 14 14 14 14 15 14 15 14 15 16 17 17 16 15 15 13 13 13 13 14 13 13 13 14 13 13 12 11 11 11 11 10 10 10 9 9 9 9 10 11 11
15 15 15 14 12 11 11 11 12 11 9 8 8 8 7 7 7 7 8 8 8 8 8 9 9 9 10 11 12 12 12 12 13 13 13 13 13 14 13 13 14 14 13 13 13 13 13 13 14 15 15 15 15 15 16 17 17 17 16 15 14 13 13 13 13 13 13 13 13 12 11 11 11 10 10 9 9 8 8 8 8 8 10 10 10
14 14 14 14 12 11 11 11 12 10 9 8 8 7 7 7 7 7 7 7 7 7 7 9 9 9 9 11 12 12 12 12 13 13 13 13 13 13 13 13 14 13 13 12 12 12 13 13 14 14 15 14 14 14 15 15 16 16 16 14 13 12 12 12 12 12 12 12 12 11 11 11 10 9 8 8 8 7 7 7 7 7 9 9 9
13 13 12 13 13 12 12 12 11 9 9 8 8 7 7 7 7 7 7 7 7 7 7 8 9 9 9 11 12 12 13 13 13 13 13 12 12 12 12 13 13 12 12 12 12 12 13 14 14 14 14 14 13 13 14 15 15 15 14 13 12 12 11 11 11 11 11 11 11 10 10 10 9 8 7 6 6 6 6 7 7 7 9 8 9
13 12 11 12 13 12 12 11 10 8 9 8 8 8 8 8 7 8 7 7 7 7 8 8 9 9 10 11 12 12 12 13 13 13 13 12 12 12 12 12 11 11 11 12 12 12 13 14 14 13 14 14 14 13 15 16 14 13 12 12 12 11 11 10 10 10 10 10 10 9 9 8 7 6 6 6 6 5 6 7 7 7 9 8 8
13 13 11 12 12 12 11 10 9 9 9 8 8 8 8 8 8 8 8 8 7 7 8 9 9 10 10 11 11 12 12 13 13 12 13 12 11 11 11 11 11 11 11 11 12 12 13 13 12 14 15 15 14 14 15 14 13 12 12 11 11 11 9 9 9 9 9 8 8 7 7 7 6 5 5 5 6 5 6 7 7 8 8 8 8
14 14 13 13 12 11 10 10 10 9 9 9 8 8 8 8 8 8 8 8 8 8 8 9 10 10 10 11 10 11 12 12 12 12 13 12 11 11 10 10 10 10 11 11 11 12 12 12 13 14 14 13 13 13 13 12 12 12 12 11 11 10 9 8 8 7 7 7 7 5 6 6 5 4 4 5 5 6 6 7 7 7 7 7 7
15 14 14 13 11 11 10 10 10 10 9 9 8 7 7 8 8 8 8 8 8 8 9 9 9 10 10 10 9 10 11 11 11 12 12 11 11 10 9 9 10 9 9 10 11 11 11 12 13 14 13 12 12 11 11 11 11 11 11 11 10 10 9 7 7 6 6 6 5 4 4 5 5 4 4 5 5 5 6 6 5 6 6 7 7
16 14 13 12 12 11 11 11 10 10 9 9 8 8 7 7 8 8 8 8 7 8 9 9 9 10 10 9 9 9 10 10 10 11 10 10 10 9 8 8 9 8 8 9 9 10 10 10 11 12 11 11 11 11 10 11 10 10 10 10 9 9 8 7 6 5 5 4 3 3 3 4 4 4 4 5 5 5 5 5 4 5 5 5 5
15 14 13 12 12 11 11 11 11 10 9 9 9 8 8 8 8 8 8 7 7 8 9 9 9 9 9 9 9 9 9 9 9 9 9 9 9 8 8 8 8 8 8 9 9 9 9 9 9 9 9 9 10 10 10 10 9 9 9 9 9 8 8 7 6 5 4 3 3 2 3 3 3 3 4 4 4 4 4 4 4 4 4 5 5
16 15 14 12 12 11 11 11 11 11 10 10 9 9 9 8 8 8 7 7 7 8 9 8 8 9 8 8 9 9 9 9 9 9 9 8 8 8 8 9 9 9 9 9 8 9 8 8 8 8 8 8 9 9 10 10 9 8 7 8 8 7 7 6 5 5 4 3 2 2 2 2 2 3 3 3 3 3 3 4 4 4 4 5 5
16 15 14 13 13 12 12 12 11 11 10 10 9 9 9 8 8 8 7 7 7 8 8 8 8 8 8 8 8 8 8 8 8 8 8 8 9 9 9 9 8 9 9 8 7 8 7 7 7 7 8 7 7 8 8 8 8 7 6 6 7 6 6 6 5 5 3 3 3 3 3 3 2 2 3 3 3 3 3 4 4 4 4 5 5
16 15 14 13 13 12 12 12 12 12 11 10 10 9 9 8 8 8 7 7 8 8 8 8 8 8 7 7 8 8 8 8 8 8 8 9 10 10 9 8 8 8 7 7 7 7 6 6 7 7 7 7 6 7 7 6 6 6 5 5 5 6 5 5 5 5 3 3 4 4 4 3 3 3 3 2 2 3 3 3 4 4 4 4 4
16 15 14 14 14 13 13 12 12 12 11 11 10 9 9 9 8 8 8 8 8 8 8 8 8 8 8 8 7 7 8 7 8 8 9 10 10 9 8 7 7 7 6 6 5 6 6 6 6 6 7 7 6 6 6 5 4 5 6 5 4 5 5 5 5 5 4 3 3 4 4 4 4 4 3 3 2 2 3 3 3 3 3 3 3
16 15 15 15 14 14 14 13 12 13 12 11 10 9 10 9 8 8 8 8 9 8 8 8 7 7 7 8 8 8 9 8 8 9 9 9 9 8 7 7 6 5 5 4 4 5 6 6 6 7 7 7 7 7 6 4 4 4 5 5 4 5 5 5 5 4 3 3 3 4 4 4 3 3 3 3 3 2 2 2 3 3 3 3 3
15 16 15 15 15 15 15 14 13 14 13 11 10 10 10 9 9 9 9 9 9 8 7 7 7 7 7 8 8 9 9 9 8 8 8 8 8 7 7 6 5 4 4 3 4 5 6 6 7 8 8 8 7 7 5 4 3 4 4 5 4 4 4 5 4 3 3 3 4 4 4 4 3 3 2 2 2 2 3 2 2 2 3 3 3
15 16 15 15 16 15 15 14 13 14 14 12 11 10 10 10 9 9 9 9 9 8 7 7 7 7 7 7 7 8 8 8 8 8 8 7 7 6 5 5 4 4 3 3 4 5 5 6 7 7 8 8 7 7 5 3 3 4 4 3 4 3 4 4 4 3 3 3 4 4 4 4 4 4 4 3 3 2 2 2 2 3 3 4 4
15 16 16 17 16 15 15 14 14 13 13 13 11 11 10 10 10 10 10 9 9 8 8 7 6 6 6 6 6 6 6 7 7 7 7 6 6 6 5 4 4 3 2 3 3 4 5 5 5 6 7 7 7 8 6 3 3 4 4 3 3 3 3 3 3 3 4 3 4 4 4 5 5 5 5 5 5 3 3 3 3 4 4 5 5
16 16 17 17 17 15 15 14 15 14 13 13 12 11 11 10 10 10 10 10 9 8 8 7 7 6 6 6 6 6 5 6 6 6 6 5 5 5 4 3 3 3 3 2 3 4 4 4 5 5 6 7 7 9 8 4 3 4 4 4 3 3 3 3 3 4 4 4 5 5 4 5 6 6 6 6 5 5 4 4 4 5 5 5 6
17 17 17 18 17 16 15 14 15 15 14 13 12 12 11 11 10 10 10 10 9 9 8 7 7 7 6 6 6 6 5 5 5 5 5 5 4 4 4 3 3 3 2 2 2 3 3 3 4 5 6 7 7 8 8 6 4 3 3 4 3 4 4 4 4 4 4 5 5 5 6 6 6 6 7 7 6 6 6 6 5 6 6 6 7
18 18 18 18 18 17 16 15 15 16 14 13 12 11 11 11 10 10 10 10 9 8 8 8 7 7 7 6 6 5 5 5 5 5 5 5 4 3 3 2 2 2 1 1 1 1 2 3 4 4 5 7 7 6 7 6 4 3 3 2 3 4 4 5 5 5 6 7 6 5 5 6 6 6 6 6 7 7 8 7 6 6 6 6 7
19 20 20 20 18 17 16 15 16 15 14 13 12 11 11 11 11 10 11 11 9 7 7 8 7 7 7 6 5 4 5 5 4 4 5 4 4 3 2 1 1 1 1 1 1 2 2 2 3 4 4 5 5 5 6 4 3 2 2 2 3 5 5 7 7 7 7 7 7 6 6 6 6 6 6 6 6 7 8 7 7 7 6 6 6
19 20 21 21 19 16 16 15 15 15 14 13 12 11 11 13 12 11 11 10 9 8 8 8 7 7 7 6 5 4 4 5 5 4 4 4 3 2 2 1 0 1 1 1 2 2 2 2 3 3 3 4 4 4 5 4 2 1 2 2 4 6 7 8 8 9 8 7 7 7 7 7 7 7 7 7 7 7 7 7 7 7 6 6 6
19 20 21 21 20 18 17 16 15 16 14 13 14 13 12 13 12 11 11 11 10 9 9 8 8 8 7 7 7 6 6 5 5 5 4 4 3 2 2 1 1 1 1 1 2 2 2 2 2 2 2 3 3 3 3 3 2 1 1 3 5 6 7 8 8 8 8 7 6 7 7 7 8 8 7 7 7 7 7 7 7 7 6 6 6
18 20 21 22 22 21 18 17 16 17 16 16 17 16 15 14 13 12 11 10 11 11 10 9 8 8 8 7 8 8 7 7 6 5 5 5 4 3 2 1 1 1 2 2 2 2 2 2 2 1 1 1 2 3 3 2 1 1 2 2 4 5 5 7 7 6 6 6 6 8 8 7 7 7 7 7 7 8 8 7 7 7 7 7 7
19 21 21 22 23 22 20 19 17 17 20 20 21 20 18 17 15 13 11 9 11 11 10 10 9 8 8 7 8 8 8 8 7 6 6 6 5 4 3 2 2 2 2 2 2 2 1 2 2 1 0 0 1 1 1 1 2 1 1 2 3 3 3 4 5 5 4 4 5 7 8 7 6 6 6 6 6 7 7 8 8 8 8 8 8
20 21 22 21 22 22 21 22 20 19 22 23 23 22 21 20 16 14 12 9 11 12 10 10 10 9 9 8 7 8 9 9 8 8 7 6 5 4 3 3 2 2 2 2 2 2 1 2 2 1 1 1 1 1 1 2 1 1 1 2 3 2 2 3 5 5 3 4 4 5 6 7 5 5 6 6 6 6 6 7 7 8 8 8 8
20 21 22 21 22 22 23 25 25 24 25 25 25 23 22 21 18 16 14 11 11 12 11 11 11 10 10 9 8 8 8 9 9 8 8 7 5 4 4 3 3 3 2 2 3 2 1 2 2 1 1 2 2 2 1 2 1 2 1 1 1 1 2 4 6 4 4 4 4 5 6 6 6 6 7 5 6 6 7 7 7 8 8 8 9
20 21 22 22 22 23 26 28 28 27 27 26 26 24 23 21 19 17 15 13 12 12 11 10 11 11 10 10 10 9 9 9 9 8 8 7 6 5 4 3 3 3 3 3 3 2 2 2 2 2 2 2 2 2 1 2 2 2 2 1 1 1 2 5 5 2 4 5 4 5 6 6 5 6 7 6 6 7 7 7 8 8 8 9 9
21 21 22 23 23 24 27 28 28 29 28 27 26 26 25 23 21 18 15 13 12 11 12 11 10 10 9 10 10 10 10 10 9 9 9 8 6 5 4 4 4 4 4 4 3 3 2 2 3 3 3 2 1 1 1 1 1 1 1 1 2 2 3 6 4 2 4 4 5 7 6 7 6 6 8 7 7 7 7 8 8 8 9 9 9
21 21 22 23 23 24 28 29 29 30 29 28 28 27 26 25 25 21 16 14 12 13 15 13 12 11 9 9 10 10 11 10 10 10 9 8 7 6 5 5 5 5 5 4 4 3 2 2 3 4 4 2 2 1 1 1 0 0 0 0 1 2 3 5 3 3 3 3 6 8 7 8 8 7 8 7 7 8 8 8 8 8 8 9 9
22 21 21 22 23 25 29 31 31 31 30 30 29 29 29 28 27 24 19 18 14 14 17 15 13 12 10 10 10 10 11 11 11 10 10 9 8 7 6 6 6 6 6 5 4 3 2 2 3 4 5 3 2 1 1 1 2 1 0 0 1 2 3 4 3 3 3 3 5 7 7 9 8 7 9 8 8 9 9 8 8 8 8 9 9
23 23 23 23 24 26 29 31 31 31 31 31 31 30 31 30 29 26 22 21 17 16 17 16 14 13 11 11 11 11 11 11 11 10 11 11 10 8 7 7 7 7 7 5 4 3 3 2 3 3 4 4 2 1 0 1 2 2 1 0 1 2 2 2 2 1 2 2 3 5 7 8 7 8 9 9 9 11 11 10 9 9 9 9 9
24 24 24 23 23 25 27 30 31 31 32 32 32 31 32 31 30 28 25 22 21 19 18 17 16 15 13 12 12 12 12 11 10 10 10 11 11 10 8 7 7 7 7 6 4 4 3 2 2 3 3 3 3 1 1 1 2 1 1 1 1 2 2 2 2 1 2 2 3 4 6 7 7 7 8 9 9 10 11 12 11 10 10 10 9
24 24 24 23 23 24 26 30 31 32 32 32 33 32 33 32 32 31 28 25 23 21 19 18 18 17 16 15 14 14 14 13 12 10 10 12 12 11 10 8 7 7 7 6 5 4 3 2 2 2 3 2 2 1 1 2 2 1 2 1 1 1 1 1 2 3 3 3 3 4 5 7 7 5 8 9 9 8 10 12 12 10 10 10 9
Wind_Direction
138 131 128 132 133 134 129 130 127 121 119 116 118 120 122 125 127 127 127 126 126 122 120 118 116 116 115 114 112 113 114 114 115 115 114 113 111 107 104 102 98 97 97 99 99 99 102 103 104 107 108 108 108 108 106 102 100 99 98 99 100 99 94 90 90 92 96 94 92 98 102 101 99 99 99 100 101 98 95 94 91 91 94 100 102
141 132 132 137 133 131 129 128 123 117 116 115 116 118 119 121 122 122 123 123 123 122 121 120 118 117 116 113 112 115 118 118 115 112 111 108 105 102 101 100 97 94 97 103 103 105 107 107 110 113 111 105 100 92 93 97 98 99 98 99 102 99 96 94 94 93 94 93 91 95 101 102 103 102 100 100 99 96 96 95 93 93 96 100 101
138 135 135 135 129 129 129 127 124 120 118 118 119 119 120 120 122 122 123 122 122 123 120 118 116 114 112 112 113 115 117 115 111 108 104 104 108 110 106 99 97 95 100 108 107 105 104 108 114 115 107 100 98 87 88 100 99 99 99 98 98 97 96 96 97 94 93 96 94 93 98 102 105 107 109 108 102 98 98 97 96 95 96 98 96
138 136 135 133 129 127 126 127 124 122 121 121 122 122 122 122 123 122 121 120 121 120 117 115 113 112 110 110 111 111 110 108 105 101 102 111 120 118 110 102 101 102 99 103 108 108 109 109 106 103 98 100 108 105 104 108 99 97 99 96 96 97 97 95 95 95 96 97 94 93 95 99 102 108 112 111 105 100 99 100 99 97 96 96 94
139 137 137 135 128 123 124 126 123 124 124 123 125 124 124 123 122 121 120 119 119 116 115 115 113 110 107 107 105 103 102 103 101 98 107 115 112 108 104 101 96 88 83 89 103 109 109 102 96 98 100 106 112 111 111 107 99 97 97 97 97 98 97 94 93 95 98 97 94 94 94 98 101 105 110 109 104 100 100 102 100 98 95 94 92
140 137 138 137 131 129 131 130 127 131 129 127 127 126 125 123 122 121 121 119 117 115 115 114 109 105 102 100 98 101 109 109 103 103 109 104 99 101 100 99 90 83 83 87 97 101 96 94 96 100 104 107 107 109 112 107 101 98 99 100 99 98 97 96 97 99 99 95 92 91 92 98 101 104 107 105 101 98 100 103 100 96 92 89 87
139 137 137 137 137 137 138 135 134 136 135 134 131 128 125 122 123 120 117 116 115 115 113 107 102 100 98 99 101 109 118 110 102 100 98 93 93 98 100 99 97 95 92 91 93 92 91 94 98 100 100 101 103 110 114 109 103 101 102 101 100 100 99 101 104 104 100 95 91 90 94 97 100 103 103 100 97 97 102 103 98 93 89 85 82
139 137 137 137 137 138 139 137 136 140 139 136 131 127 124 121 120 116 115 115 116 114 108 103 100 100 104 106 107 112 114 107 103 105 103 95 92 93 96 99 102 99 94 97 100 97 97 100 100 101 99 96 100 107 110 106 104 103 104 103 104 104 103 106 107 105 99 95 94 93 94 96 98 99 99 97 96 99 101 98 95 91 86 82 79
140 137 137 135 137 139 140 139 138 141 139 134 129 125 123 121 117 115 117 117 116 113 108 104 102 103 105 104 105 112 113 106 104 108 109 103 99 94 90 93 96 92 94 106 104 97 97 99 102 104 102 99 99 104 107 106 105 105 105 106 107 107 107 109 108 103 95 92 93 94 95 96 98 99 99 98 98 101 98 93 91 88 84 80 78
141 139 136 134 139 142 140 139 138 139 137 133 128 124 122 117 113 114 117 118 116 112 109 106 103 103 100 97 100 107 104 99 100 102 99 99 98 93 87 85 85 88 97 101 95 93 94 95 97 100 101 103 106 106 106 107 108 108 108 109 109 107 107 110 108 101 95 94 95 97 100 100 100 101 102 100 100 100 98 96 93 86 83 79 75
143 140 136 136 141 142 140 138 137 139 138 135 129 125 121 116 114 116 119 118 114 109 110 106 103 101 97 94 94 95 96 95 98 100 91 83 89 92 92 89 86 91 94 90 88 90 91 93 95 94 96 101 107 110 107 109 112 110 111 110 108 107 112 114 107 99 97 98 97 97 99 99 101 103 103 100 98 97 97 96 92 86 82 78 74
145 142 138 139 143 142 141 139 138 140 142 139 130 126 122 119 117 117 119 117 114 111 109 105 102 102 97 95 93 90 92 92 91 94 92 85 88 93 95 93 92 91 84 81 84 87 88 93 98 97 97 100 104 109 107 108 111 109 108 107 108 113 119 114 103 99 99 100 98 97 97 98 102 103 100 98 98 98 97 94 90 86 81 77 74
145 143 141 141 144 143 141 141 140 142 145 142 132 128 124 119 118 118 119 116 115 113 109 103 100 101 100 99 97 92 87 86 87 92 98 100 96 94 92 90 88 85 76 73 79 87 91 94 98 100 106 109 107 107 105 106 108 109 111 110 115 119 118 110 103 102 102 102 99 100 100 99 102 101 99 99 99 98 96 92 89 85 81 77 74
146 145 144 145 146 144 143 142 142 145 147 144 136 129 122 117 118 120 119 119 116 115 112 103 96 97 99 99 98 97 94 91 93 95 96 96 92 90 88 85 82 80 76 74 79 85 88 88 93 102 112 114 109 104 104 107 109 113 115 114 118 118 113 108 105 105 105 104 100 100 100 100 101 99 99 99 98 98 95 92 88 86 83 79 75
148 149 148 148 147 146 144 145 145 145 146 144 137 128 120 119 119 120 120 119 117 116 112 103 95 93 93 93 95 98 99 99 96 91 87 87 88 86 82 81 79 77 77 77 80 84 86 85 88 96 102 104 103 99 101 102 102 108 109 111 115 115 114 111 109 108 107 106 101 96 96 98 99 97 98 99 100 99 96 92 89 87 85 81 77
148 152 150 149 150 150 148 149 150 144 143 143 136 128 122 121 119 120 121 120 118 116 110 104 97 91 90 89 93 96 95 95 93 91 89 86 85 84 79 78 76 74 76 77 79 82 86 87 86 88 92 101 104 100 101 102 104 107 107 111 118 121 119 114 111 110 107 105 101 96 95 98 97 97 99 101 102 100 97 94 90 90 88 84 79
150 154 153 151 151 151 149 149 150 143 142 142 137 131 127 123 122 120 120 119 119 115 107 103 96 91 92 92 93 93 91 90 90 89 86 83 81 83 79 75 74 71 72 75 77 81 85 89 93 95 97 106 110 107 109 114 118 118 121 124 125 125 122 114 109 107 105 103 100 97 96 99 100 100 102 104 104 100 97 93 90 92 91 85 81
151 156 158 157 153 150 149 150 149 144 142 145 142 137 133 129 125 122 120 119 116 111 107 104 99 96 96 97 96 92 89 88 88 87 83 83 81 82 79 72 71 70 69 71 74 78 81 87 94 98 99 103 107 109 113 119 121 119 123 127 124 122 120 112 106 105 104 102 99 98 100 103 103 103 105 105 103 100 97 93 90 89 89 87 83
154 156 159 160 159 155 153 154 150 144 146 149 148 145 141 137 130 125 122 118 113 111 112 109 108 105 99 99 99 94 89 86 86 87 85 84 82 81 80 75 72 70 68 72 76 77 78 79 82 85 88 92 97 100 102 108 111 111 113 117 118 118 116 109 105 106 104 101 99 99 103 104 102 103 106 105 104 101 98 95 91 86 85 86 85
158 156 158 163 164 160 158 156 151 148 153 152 152 152 147 141 134 128 122 117 115 117 115 114 115 110 102 103 103 98 94 90 88 88 87 84 84 84 84 81 78 73 69 75 79 75 75 74 72 74 77 80 84 88 89 92 95 96 98 105 111 112 111 107 104 104 103 101 98 101 108 105 103 104 104 103 101 95 92 90 86 83 83 84 84
164 159 159 164 163 161 159 155 152 155 157 154 155 154 148 144 136 130 126 123 124 122 115 115 120 114 108 107 105 101 98 97 94 92 91 87 87 88 89 88 85 81 75 76 78 73 71 70 68 69 70 73 77 79 79 80 79 79 84 95 103 105 106 106 105 101 101 100 97 104 108 105 106 104 101 100 95 89 86 80 76 74 74 77 81
167 163 163 165 163 160 159 154 157 161 160 159 159 158 152 148 142 137 134 131 132 125 118 118 119 120 118 110 104 103 102 99 96 95 92 88 88 89 91 93 92 89 83 79 79 77 73 70 69 69 68 70 75 74 72 71 67 66 73 83 90 96 100 100 102 101 101 97 97 107 107 102 105 99 94 94 90 83 76 68 67 69 69 69 71
170 169 168 168 165 162 160 160 163 164 164 163 161 160 156 152 147 142 138 135 134 128 123 122 120 125 124 114 107 107 107 102 99 100 95 91 92 94 96 98 98 93 90 85 81 81 78 74 71 70 68 67 69 70 68 66 63 63 68 73 79 85 92 95 97 100 102 98 95 100 99 97 100 93 86 87 84 76 67 60 59 64 68 67 64
173 171 169 169 168 166 166 169 170 167 166 164 162 162 157 154 151 146 140 137 136 130 128 128 127 130 126 119 114 112 111 107 105 104 101 100 98 98 98 100 101 98 95 89 82 80 78 74 69 67 67 65 65 65 64 63 62 61 64 70 74 78 82 88 93 98 103 103 95 89 86 86 87 79 67 68 69 66 59 55 55 55 58 61 58
171 170 169 169 171 172 173 174 173 170 168 164 164 163 158 154 151 148 143 140 138 135 133 133 134 133 130 126 123 119 116 112 110 109 108 107 103 100 98 98 102 103 99 90 85 80 76 72 66 63 63 62 62 62 62 63 62 59 61 67 71 75 77 80 87 93 100 103 100 96 89 79 75 62 49 52 49 48 47 45 49 51 53 54 50
170 171 169 169 173 177 176 176 175 171 169 168 167 163 160 157 152 149 144 141 141 139 135 134 135 134 134 133 129 124 120 117 114 113 110 110 107 103 102 101 104 105 98 88 82 76 71 68 64 60 56 56 57 56 55 57 62 62 60 61 64 69 71 73 76 79 86 93 101 113 97 78 73 61 47 47 40 36 36 36 37 41 49 46 42
173 174 170 168 172 177 179 178 175 172 171 172 170 164 162 160 155 151 148 145 144 141 134 133 136 136 139 140 135 129 124 122 119 115 111 110 108 107 106 103 103 102 95 84 77 70 65 61 57 54 51 52 52 49 45 44 50 58 59 56 57 60 63 67 65 62 65 69 77 100 97 81 78 75 58 48 37 30 26 28 29 28 35 36 33
175 174 169 168 171 176 181 181 178 175 174 176 174 167 165 163 160 157 154 151 145 138 134 134 135 137 140 142 139 134 128 125 123 119 115 114 112 111 111 106 102 97 90 81 72 65 59 55 50 46 43 44 44 42 39 34 37 46 55 52 53 54 52 55 50 48 50 49 48 55 77 76 73 74 60 46 33 25 20 22 28 23 23 26 25
177 173 168 168 171 175 181 182 182 178 176 180 177 169 167 167 166 160 156 155 147 142 139 137 136 137 139 140 140 136 131 126 124 121 118 119 119 117 114 110 104 95 85 76 68 59 50 46 43 39 36 37 38 36 34 32 33 39 48 51 53 52 48 43 32 30 29 28 34 36 50 57 61 64 54 41 30 25 18 20 29 25 22 23 25
179 172 169 170 171 176 182 183 184 181 178 183 179 171 170 171 170 162 158 158 151 146 143 141 141 140 139 139 138 136 131 125 125 123 122 123 123 121 118 112 102 94 83 73 69 58 47 40 39 39 38 41 39 36 36 37 36 36 41 48 52 48 44 35 21 17 13 12 20 24 34 43 52 53 36 25 31 37 25 21 22 23 23 23 26
177 173 173 173 172 177 182 184 186 183 181 185 182 176 176 174 170 163 163 162 156 151 149 147 149 147 145 143 140 137 130 124 124 124 123 123 122 121 119 110 97 97 91 74 71 65 57 49 46 45 43 44 39 37 41 39 40 39 38 42 47 42 35 29 19 11 5 1 4 11 18 26 39 39 23 11 13 21 27 26 20 15 14 13 14
177 177 177 176 175 178 182 183 187 187 184 185 185 181 181 178 172 168 169 168 161 157 157 155 154 151 148 146 142 136 128 122 122 122 122 121 121 121 117 110 100 106 103 79 71 70 63 53 48 44 40 41 34 30 36 42 48 44 43 43 41 38 27 22 18 8 360 351 351 354 354 357 4 360 349 342 338 353 8 13 5 353 347 349 351
178 180 180 178 177 178 181 183 187 190 187 186 186 185 184 180 177 176 174 171 167 163 163 162 157 152 146 143 141 135 128 124 124 124 123 121 123 125 117 112 113 115 108 84 70 65 57 45 41 36 32 32 27 21 24 40 48 43 53 50 38 31 15 11 10 3 359 350 342 338 332 336 335 329 327 322 316 317 327 331 326 324 326 328 329
177 180 182 181 179 178 180 183 186 189 188 187 187 186 186 183 181 182 179 176 173 169 169 168 162 155 150 146 143 139 133 129 130 129 126 124 126 130 123 118 125 121 103 83 68 60 52 40 32 26 23 23 18 12 15 30 36 37 45 42 34 16 1 1 360 358 358 351 338 329 321 323 325 324 323 320 320 315 302 302 305 308 313 316 315
176 180 184 182 180 180 180 182 185 188 188 189 188 188 189 187 185 185 183 180 178 175 174 174 171 164 158 154 148 143 142 138 138 140 139 136 132 131 129 129 132 114 92 81 63 50 44 36 26 19 16 16 10 6 13 32 39 31 28 26 21 2 360 355 351 356 354 350 344 337 329 325 322 319 322 318 317 323 319 308 301 300 298 299 301
179 179 180 182 184 184 183 182 185 187 189 190 189 190 191 190 189 188 188 186 183 182 179 177 176 172 168 164 155 147 147 146 148 153 153 150 141 132 134 142 134 111 90 63 50 35 29 27 19 17 14 8 4 6 18 41 52 31 19 19 8 356 357 349 349 351 343 343 344 342 340 339 332 324 324 324 321 326 329 323 312 303 295 291 294
182 179 177 179 184 186 185 184 185 187 189 190 189 190 193 193 192 193 195 194 191 190 187 185 182 182 182 177 166 158 153 148 152 162 163 159 150 136 137 147 129 110 78 26 10 355 10 13 9 16 16 4 359 6 20 43 59 38 25 16 354 351 349 343 342 337 333 336 337 336 334 335 336 334 327 320 320 327 331 331 324 312 304 301 301
184 183 181 181 183 184 186 187 187 188 190 190 189 190 194 197 198 200 201 201 201 199 197 197 194 193 195 193 186 176 165 154 157 167 170 170 164 156 156 157 123 62 21 356 328 323 348 3 4 8 13 6 358 3 16 34 55 47 32 356 339 341 337 335 335 330 327 325 328 327 323 324 326 329 330 322 321 329 335 336 334 329 322 317 316
185 184 184 183 183 183 185 188 189 189 191 192 191 189 194 202 205 207 208 209 211 209 207 208 208 207 207 207 206 201 187 171 167 172 178 179 174 176 184 207 282 351 339 336 335 335 351 5 7 360 1 4 352 351 6 15 23 40 14 339 330 335 333 333 333 331 327 319 320 321 315 317 318 316 322 327 327 331 339 341 341 341 338 336 334
183 182 182 183 184 184 184 187 190 190 190 193 195 194 196 201 205 208 212 215 217 216 215 215 216 217 216 216 216 216 212 196 183 185 193 194 193 198 204 225 263 310 321 343 352 342 358 2 358 360 356 353 342 335 346 357 356 323 319 318 323 329 332 335 333 331 333 331 328 328 320 314 319 319 317 318 320 323 332 338 341 344 346 349 348
182 182 181 183 187 188 186 186 189 191 191 193 197 197 196 196 199 204 208 213 217 219 219 218 220 221 218 217 219 220 220 213 200 197 209 215 214 216 222 240 265 298 313 329 340 341 356 340 335 7 9 338 331 325 325 316 280 276 299 311 320 320 321 327 326 323 327 330 331 334 334 326 324 331 329 321 319 319 324 331 335 338 341 345 346
182 184 185 184 187 189 190 189 189 193 196 198 200 200 200 199 196 200 204 208 216 218 218 218 220 223 222 218 219 219 218 215 208 206 216 222 222 225 240 261 267 288 306 306 311 325 331 315 317 355 83 208 301 329 357 323 269 267 336 331 336 338 340 334 326 322 320 322 327 328 333 334 327 332 335 330 326 326 325 328 331 333 335 338 340
184 186 187 185 186 188 191 194 193 196 201 203 203 203 204 204 202 203 204 206 214 215 216 222 224 228 228 222 220 218 216 216 211 211 217 223 227 231 241 256 261 275 292 288 289 290 286 292 292 292 187 180 167 109 62 21 312 156 48 352 359 3 69 37 351 347 338 320 326 323 325 330 328 332 337 331 328 329 328 329 331 335 337 339 341
186 187 188 186 187 189 193 198 200 202 204 205 205 205 205 207 209 212 213 217 221 220 224 232 234 234 231 226 221 217 217 219 216 215 219 225 230 228 233 248 258 260 259 265 273 274 273 284 276 246 215 194 159 139 81 43 75 127 54 26 357 347 97 26 355 10 20 348 339 330 326 327 323 333 339 326 320 325 328 332 336 339 342 342 343
189 188 189 189 189 192 197 201 204 206 206 205 205 205 206 207 210 214 218 222 223 223 224 227 231 231 227 223 220 216 216 218 216 216 220 226 230 232 238 246 255 253 250 260 263 255 244 255 260 235 220 214 165 147 126 74 95 108 52 63 18 34 57 3 352 28 19 12 13 351 343 341 329 336 347 340 332 334 332 333 338 342 344 345 345
194 192 191 192 192 193 199 201 204 207 208 207 205 205 206 206 208 209 209 210 211 215 215 212 217 220 217 217 219 216 215 216 215 216 219 225 231 240 249 250 248 245 245 256 258 257 246 235 240 229 219 213 183 170 165 110 82 72 53 52 26 22 1 349 350 355 354 17 18 7 9 5 358 5 11 8 359 355 347 340 341 341 342 345 347
196 194 192 194 193 193 198 201 204 207 208 208 206 205 206 208 210 209 208 207 205 212 218 217 219 219 216 217 218 216 215 216 217 218 219 223 230 238 245 243 237 234 239 252 255 247 221 217 224 221 225 218 189 209 221 200 43 37 57 61 7 354 342 345 346 341 347 360 3 13 26 16 16 25 26 23 13 8 4 357 350 345 347 351 353
196 193 192 194 194 195 200 202 204 206 207 208 207 206 207 209 211 211 214 215 211 216 222 222 222 223 221 219 220 219 218 218 219 221 221 221 224 229 233 231 226 227 235 245 247 233 204 213 222 219 228 227 198 196 245 268 264 236 69 249 276 326 341 352 349 340 343 334 352 15 18 13 23 32 32 33 25 22 21 16 10 5 3 3 2
196 193 193 194 194 197 201 202 204 206 207 208 208 207 208 210 211 212 216 218 217 221 225 225 225 225 225 224 224 224 224 224 222 221 221 221 221 222 225 225 224 228 235 240 239 230 215 213 224 226 230 228 219 220 229 301 276 246 251 305 312 321 334 3 14 356 358 347 352 6 3 3 16 25 27 27 25 27 29 28 27 23 20 15 9
196 193 193 193 193 195 199 201 204 206 208 209 208 208 209 210 212 213 215 218 219 221 224 226 227 226 227 228 228 227 228 229 226 222 221 221 220 219 221 222 225 229 232 234 230 230 228 216 219 233 235 232 229 244 271 290 293 253 227 262 324 328 336 8 28 26 16 4 338 343 357 358 357 6 10 13 19 25 30 32 31 30 29 25 17
194 191 191 192 193 194 197 200 204 206 208 209 209 209 209 210 212 214 215 216 217 218 220 223 226 226 226 228 231 231 231 231 231 228 225 223 221 219 221 222 224 225 225 227 228 232 233 221 221 240 250 252 249 274 281 276 287 245 218 237 292 312 337 352 12 12 359 359 341 333 353 354 343 344 355 6 18 22 27 30 30 32 30 25 19